Regional Weather Roundup
Issued by NWS Cleveland, OH

Home | Current Version | Previous Version | Graphics & Text | Print | Product List | Glossary On
Versions: 1 2 3 4 5 6 7 8 9 10 11 12 13 14 15 16 17 18 19 20 21 22 23 24 25 26 27 28 29 30 31 32 33 34 35 36 37 38 39 40 41 42 43 44 45 46 47 48 49 50
000
ASUS41 KCLE 191902
RWRCLE
OHIO REGIONAL WEATHER ROUNDUP
NATIONAL WEATHER SERVICE CLEVELAND, OH
300 PM EDT FRI SEP 19 2014

NOTE: "FAIR" INDICATES FEW OR NO CLOUDS BELOW 12,000 FEET WITH NO
SIGNIFICANT WEATHER AND/OR OBSTRUCTIONS TO VISIBILITY.

OHZ001>008-015>018-024>027-034-035-043-044-192000-
   NORTHWEST OHIO

CITY           SKY/WX    TMP DP  RH WIND       PRES   REMARKS
DEFIANCE       SUNNY     71  48  43 VRB3      30.18S
FINDLAY        SUNNY     71  45  39 VRB5      30.16F
TOLEDO EXPRESS SUNNY     68  46  45 E5        30.17F
TOLEDO EXEC    SUNNY     68  48  48 E3        30.18F
LIMA           SUNNY     71  47  42 NE5       30.16F
$$

OHZ009>014-019>023-028>033-038-089-192000-
   NORTHEAST OHIO

CITY           SKY/WX    TMP DP  RH WIND       PRES   REMARKS
CLE-HOPKINS    MOSUNNY   68  47  46 VRB6      30.20F
CLE-LAKEFRONT  SUNNY     66  51  58 NE10      30.18F
CUY CO. ARPT   MOSUNNY   68  50  52 S9        30.20F
LORAIN-ELYRIA  SUNNY     71  48  43 S5        30.19F
ASHTABULA      SUNNY     66  45  46 SW6       30.22F
AKRON-CANTON   MOSUNNY   70  45  40 VRB5      30.19F
WOOSTER        SUNNY     71  45  39 E8        30.19F
MANSFIELD      SUNNY     70  44  39 E8        30.18F
YOUNGSTOWN     MOSUNNY   67  47  48 CALM      30.21F
$$

OHZ042-051>053-060>062-070>072-077>081-192000-
  SOUTHWEST OHIO

CITY           SKY/WX    TMP DP  RH WIND       PRES   REMARKS
CINC-COVINGTON MOSUNNY   73  48  41 SE7       30.13F
CINC-LUNKEN    SUNNY     75  48  38 NE7       30.13F
HAMILTON       SUNNY     74  52  46 NE7       30.14F
DAYTON         MOSUNNY   73  45  36 VRB6      30.15F
WRIGHT-PAT AFB MOSUNNY   73  44  35 E8        30.14F
DAYTON GENERAL SUNNY     72  47  40 NE6       30.14F
WILMINGTON     SUNNY     72  44  36 VRB7      30.14F
$$

OHZ036-037-039>041-045>050-054>059-063>069-073>076-082>088-192000-
  CENTRAL AND SOUTHEAST OHIO

CITY           SKY/WX    TMP DP  RH WIND       PRES   REMARKS
COLUMBUS       MOSUNNY   75  40  28 VRB3      30.15F
OSU AIRPORT    SUNNY     72  43  35 VRB3      30.15F
BOLTON FIELD   SUNNY     72  50  46 NE6       30.16F
RICKENBACK AFB SUNNY     72  47  40 E8        30.14F
NEWARK         SUNNY     72  47  40 VRB5      30.15F
MARION         SUNNY     70  42  36 SE8       30.17F
LANCASTER      SUNNY     75  48  38 NE5       30.15F
ZANESVILLE     SUNNY     73  48  41 E7        30.15F
NEW PHILLY     SUNNY     73  50  44 E5        30.17F
$$



USA.gov is the U.S. government's official web portal to all federal, state and local government web resources and services.